[[{"header":{"parameterUnit":"m.s-1","parameterCategory":1,"la1":30.2991,"la2":30.254,"lo1":-89.0895,"lo2":-89.0444,"dy":0.0017,"dx":0.0017,"nx":28,"ny":28,"refTime":"2024-04-27T21:00:00:Z","depth":0,"parameterNumber":2,"parameterNumberName":"U-component_of_WINDS"},"data":[0,0,0,0,0,0,0,0,0,0,0,0,0,0,0,0,0,0,0,0,0,0,0,0,0,0,0,0,0,0,0,0,0,0,0,0,0,0,0,0,0,0,0,0,0,0,0,0,0,0,0,0,0,0,0,0,0,0,-4.337,-4.3372,0,-4.3551,-4.3553,-4.3555,-4.3595,-4.3594,-4.3593,-4.3592,-4.3772,-4.3778,-4.3784,0,0,0,0,0,0,0,0,0,0,0,0,0,-4.3058,-4.3064,-4.337,-4.3372,-4.3375,-4.355,-4.3553,-4.3555,-4.3596,-4.3594,-4.3593,-4.3591,-4.377,-4.3778,-4.3785,0,0,0,0,0,0,0,0,0,0,0,0,0,-4.3211,-4.3065,-4.337,-4.3416,-4.3422,-4.355,-4.3553,-4.3556,-4.3596,-4.3594,-4.3592,-4.359,-4.3768,-4.3777,-4.3786,-4.3879,0,0,-4.3813,-4.3817,0,0,0,0,0,0,0,0,-4.3203,-4.3223,-4.3407,-4.3413,-4.342,-4.3549,-4.3509,-4.3664,-4.3597,-4.353,-4.3592,-4.359,-4.3699,-4.3714,-4.3752,-4.3887,-4.3895,-4.3814,-4.3819,-4.3823,-4.3826,0,0,0,0,0,0,0,-4.3192,-4.3215,-4.3441,-4.341,-4.3418,-4.3427,-4.3447,-4.3539,-4.3623,-4.3536,-4.3539,-4.356,-4.3702,-4.3743,-4.3756,-4.3898,-4.3814,-4.3822,-4.3827,-4.3831,-4.412,-4.4122,0,0,0,0,0,0,-4.3174,-4.3206,-4.3436,-4.3447,-4.3305,-4.3434,-4.3456,-4.3509,-4.3622,-4.3637,-4.3561,-4.3561,-4.3729,-4.3746,-4.3763,-4.3879,-4.3823,-4.3832,-4.3837,-4.4117,-4.412,-4.4122,0,0,0,0,0,0,-4.3167,-4.3194,-4.3428,-4.3328,-4.3358,-4.3442,-4.3501,-4.3514,-4.3554,-4.3642,-4.3656,-4.3587,-4.3728,-4.375,-4.385,-4.3886,-4.3836,-4.3844,-4.4115,-4.4118,-4.4121,-4.4112,0,0,0,0,0,0,-4.3158,-4.3191,-4.3228,-4.3328,-4.3364,-4.3513,-4.3503,-4.3519,-4.357,-4.3572,-4.367,-4.3684,-4.3728,-4.3837,-4.3859,-4.3897,-4.3851,-4.4112,-4.4116,-4.412,-4.4109,-4.4114,-4.4119,0,0,0,0,0,-4.3146,-4.3217,-4.3229,-4.3257,-4.3411,-4.3515,-4.3536,-4.3585,-4.3573,-4.361,-4.3667,-4.3681,-4.3879,-4.3846,-4.3872,-4.3913,-4.411,-4.4115,-4.412,-4.4107,-4.4113,-4.4119,0,0,0,0,0,0,-4.3117,-4.3231,-4.3246,-4.3351,-4.3424,-4.3522,-4.357,-4.3591,-4.3667,-4.3665,-4.3723,-4.3744,-4.384,-4.3888,-4.3849,-4.401,-4.3994,-4.4004,-4.3975,-4.3982,-4.3987,-4.3972,-4.3858,0,0,0,0,0,-4.3123,-4.3199,-4.3294,-4.3378,-4.3414,-4.3486,-4.3533,-4.3566,-4.3642,-4.3673,-4.3736,-4.3809,-4.3888,-4.3938,-4.4015,-4.4117,-4.4139,-4.4159,-4.4163,-4.4167,-4.4174,-4.4232,-4.4241,-4.4139,-4.4139,-4.4139,0,0,-4.3135,-4.3207,-4.3251,-4.3374,-4.3434,-4.351,-4.3511,-4.3592,-4.3649,-4.3685,-4.3783,-4.3832,-4.3917,-4.4019,-4.4067,-4.4061,-4.4208,-4.4174,-4.4176,-4.4181,-4.4238,-4.4247,-4.4256,-4.4143,-4.4142,-4.4142,0,0,-4.3197,-4.326,-4.3336,-4.3397,-4.3488,-4.3536,-4.3554,-4.3651,-4.3685,-4.3786,-4.3814,-4.3882,-4.4017,-4.4076,-4.4124,-4.421,-4.4226,-4.4234,-4.4258,-4.4313,-4.4321,-4.4328,-4.4358,-4.4368,-4.4242,-4.4242,-4.4242,0,-4.32,-4.3318,-4.3372,-4.3453,-4.3505,-4.3543,-4.3621,-4.3677,-4.3788,-4.3823,-4.3816,-4.3986,-4.4046,-4.4161,-4.4183,-4.4221,-4.4242,-4.4222,-4.4316,-4.4324,-4.4331,-4.436,-4.4371,-4.4242,-4.4242,-4.4242,-4.4242,0,-4.3317,-4.3398,-4.3449,-4.3557,-4.3616,-4.3694,-4.376,-4.3813,-4.3841,-4.3889,-4.3991,-4.4065,-4.4158,-4.4188,-4.4216,-4.4308,-4.4302,-4.4305,-4.4289,-4.434,-4.4368,-4.438,-4.4242,-4.4242,-4.4242,-4.4242,0,0,-4.3362,-4.3501,-4.3518,-4.3568,-4.3672,-4.3736,-4.3816,-4.3908,-4.3952,-4.4028,-4.4096,-4.421,-4.4214,-4.4268,-4.4303,-4.4352,-4.4414,-4.4349,-4.4352,-4.4357,-4.4519,-4.4514,-4.4526,-4.4427,-4.4429,-4.4431,-4.4511,0,-4.3434,-4.3579,-4.3632,-4.3751,-4.3826,-4.3864,-4.3934,-4.4005,-4.4054,-4.4124,-4.4177,-4.4256,-4.4256,-4.4289,-4.4339,-4.4396,-4.4447,-4.4391,-4.4488,-4.4491,-4.4463,-4.4541,-4.4536,-4.4608,-4.4523,-4.4525,-4.4526,0,-4.3538,-4.3617,-4.3743,-4.3839,-4.3873,-4.3934,-4.4023,-4.4091,-4.4173,-4.4204,-4.4266,-4.4298,-4.4383,-4.4365,-4.4481,-4.4442,-4.4486,-4.452,-4.4524,-4.4532,-4.451,-4.455,-4.4633,-4.4642,-4.4544,-4.4543,-4.4541,0,-4.3556,-4.3694,-4.3787,-4.3829,-4.3943,-4.3986,-4.4035,-4.4116,-4.4168,-4.4246,-4.428,-4.4367,-4.4414,-4.4479,-4.4534,-4.4516,-4.4645,-4.4632,-4.4672,-4.4671,-4.4695,-4.4692,-4.4784,-4.4727,-4.4727,-4.4727,-4.4727,0,-4.363,-4.3705,-4.3797,-4.3854,-4.394,-4.4,-4.4083,-4.4135,-4.4206,-4.4273,-4.4313,-4.4375,-4.4444,-4.4516,-4.4559,-4.4648,-4.467,-4.4696,-4.4706,-4.4692,-4.4688,-4.4719,-4.4714,-4.473,-4.4729,-4.4729,-4.4728,0,-4.3663,-4.3727,-4.3832,-4.3933,-4.396,-4.4018,-4.4104,-4.4161,-4.4212,-4.4297,-4.432,-4.44,-4.4486,-4.4548,-4.4658,-4.4687,-4.4783,-4.4794,-4.4755,-4.4759,-4.4796,-4.4791,-4.4908,-4.4926,-4.4859,-4.486,-4.486,0,-4.3705,-4.3764,-4.3872,-4.392,-4.397,-4.4048,-4.4102,-4.4164,-4.4219,-4.4317,-4.4362,-4.4451,-4.4525,-4.4661,-4.4727,-4.4812,-4.4824,-4.486,-4.4837,-4.482,-4.4822,-4.4817,-4.4823,-4.4862,-4.4862,-4.4863,-4.4863,0,-4.3772,-4.3801,-4.3878,-4.3967,-4.4031,-4.4103,-4.4176,-4.4214,-4.4289,-4.4348,-4.4437,-4.4495,-4.4609,-4.4696,-4.4788,-4.4838,-4.4862,-4.487,-4.4884,-4.4868,-4.4842,-4.4855,-4.4761,-4.4866,-4.4866,-4.4866,-4.4866,-4.4865,-4.3809,-4.3864,-4.3948,-4.4033,-4.4095,-4.4162,-4.4221,-4.428,-4.4355,-4.4453,-4.4486,-4.4578,-4.4659,-4.4785,-4.4837,-4.4909,-4.4907,-4.4927,-4.4932,-4.4935,-4.4933,-4.4833,-4.4926,-4.4926,-4.4926,-4.4926,-4.4926,0,-4.3877,-4.3933,-4.4011,-4.4112,-4.4179,-4.4199,-4.4281,-4.4335,-4.4416,-4.449,-4.4563,-4.4665,-4.4751,-4.4826,-4.4914,-4.4957,-4.4971,-4.4978,-4.4974,-4.4985,-4.4931,-4.4909,-4.4966,-4.4966,-4.4966,-4.4966,-4.4966,-4.4966,-4.3919,-4.4012,-4.4052,-4.4175,-4.4232,-4.4323,-4.4368,-4.443,-4.449,-4.4603,-4.4675,-4.4724,-4.4798,-4.4892,-4.4972,-4.4991,-4.5021,-4.5025,-4.5047,-4.4994,-4.4989,-4.4984,-4.4964,-4.5032,-4.5032,-4.5096,-4.5097,-4.5097]},{"header":{"parameterUnit":"m.s-1","parameterCategory":1,"la1":30.2991,"la2":30.254,"lo1":-89.0895,"lo2":-89.0444,"dy":0.0017,"dx":0.0017,"nx":28,"ny":28,"refTime":"2024-04-27T21:00:00:Z","depth":0,"parameterNumber":3,"parameterNumberName":"V-component_of_WINDS"},"data":[0,0,0,0,0,0,0,0,0,0,0,0,0,0,0,0,0,0,0,0,0,0,0,0,0,0,0,0,0,0,0,0,0,0,0,0,0,0,0,0,0,0,0,0,0,0,0,0,0,0,0,0,0,0,0,0,0,0,5.2697,5.2698,0,5.2797,5.2798,5.2799,5.2754,5.2752,5.2749,5.2747,5.2845,5.285,5.2855,0,0,0,0,0,0,0,0,0,0,0,0,0,5.2465,5.2469,5.2697,5.2698,5.2699,5.2797,5.2798,5.2799,5.2754,5.2751,5.2748,5.2746,5.2844,5.285,5.2855,0,0,0,0,0,0,0,0,0,0,0,0,0,5.2565,5.2471,5.2697,5.2689,5.2689,5.2796,5.2798,5.28,5.2755,5.2751,5.2748,5.2744,5.2842,5.2849,5.2856,5.2976,0,0,5.2879,5.2882,0,0,0,0,0,0,0,0,5.256,5.2574,5.2689,5.269,5.269,5.2759,5.2752,5.2859,5.2756,5.273,5.2747,5.2742,5.2819,5.2828,5.2855,5.2981,5.2985,5.288,5.2884,5.2887,5.2889,0,0,0,0,0,0,0,5.2553,5.2569,5.2736,5.269,5.2691,5.2679,5.269,5.2772,5.2794,5.2732,5.2729,5.2742,5.2819,5.2848,5.2857,5.2986,5.2879,5.2886,5.289,5.2893,5.3216,5.3219,0,0,0,0,0,0,5.2546,5.2564,5.2733,5.2739,5.2614,5.2687,5.2698,5.2741,5.2793,5.2798,5.2745,5.2739,5.2837,5.2849,5.286,5.3004,5.2887,5.2894,5.2898,5.3211,5.3216,5.3221,0,0,0,0,0,0,5.2541,5.2562,5.2729,5.2651,5.2671,5.2695,5.2743,5.2745,5.2774,5.2803,5.2806,5.277,5.2835,5.285,5.2948,5.3007,5.2897,5.2904,5.3207,5.3213,5.3219,5.3292,0,0,0,0,0,0,5.2535,5.256,5.2606,5.2652,5.2676,5.2816,5.2747,5.2749,5.2787,5.2781,5.2828,5.2832,5.2833,5.2937,5.2955,5.3015,5.291,5.3201,5.3209,5.3217,5.3284,5.33,5.3313,0,0,0,0,0,5.2527,5.2622,5.2609,5.263,5.2734,5.2819,5.2832,5.2833,5.2792,5.2838,5.2857,5.2831,5.2998,5.2948,5.2968,5.303,5.3198,5.3207,5.3216,5.3278,5.3297,5.3313,0,0,0,0,0,0,5.2581,5.2628,5.2614,5.2727,5.277,5.2812,5.287,5.2853,5.2907,5.2899,5.2896,5.2907,5.3008,5.3029,5.2972,5.3149,5.3091,5.3105,5.3131,5.315,5.3164,5.3156,5.2916,0,0,0,0,0,5.2606,5.2673,5.271,5.2806,5.2829,5.2846,5.2883,5.288,5.2923,5.2941,5.2967,5.3009,5.3071,5.3112,5.3171,5.3288,5.3297,5.3341,5.3356,5.3367,5.3378,5.3442,5.3462,5.3251,5.3251,5.3251,0,0,5.2659,5.2693,5.2734,5.2818,5.2851,5.2919,5.2861,5.2935,5.2985,5.2951,5.3046,5.3067,5.3114,5.3222,5.3271,5.3243,5.3439,5.3379,5.3388,5.3393,5.3454,5.3474,5.3491,5.3258,5.3257,5.3256,0,0,5.2789,5.2822,5.2906,5.294,5.2991,5.3002,5.3023,5.3068,5.3081,5.3176,5.3152,5.3212,5.3319,5.3353,5.3385,5.3531,5.3509,5.355,5.3625,5.3687,5.3703,5.3718,5.3769,5.3788,5.3562,5.3562,5.3562,0,5.2847,5.295,5.2951,5.3027,5.3065,5.3039,5.3124,5.3157,5.3224,5.325,5.3218,5.3353,5.3383,5.3499,5.3535,5.3562,5.3584,5.3544,5.3701,5.3716,5.373,5.3778,5.3798,5.3567,5.3566,5.3566,5.3565,0,5.3018,5.309,5.3152,5.3219,5.3263,5.3343,5.3356,5.3401,5.3395,5.3409,5.3506,5.3542,5.3608,5.3635,5.3629,5.3751,5.3732,5.3701,5.3642,5.3754,5.38,5.3819,5.3574,5.3572,5.357,5.3569,0,0,5.3183,5.3251,5.3274,5.3304,5.336,5.3415,5.3494,5.356,5.3598,5.3646,5.3712,5.3804,5.3776,5.3812,5.381,5.3865,5.3978,5.3827,5.3828,5.3853,5.4114,5.4136,5.4157,5.3964,5.3968,5.3971,5.4109,0,5.3316,5.3456,5.346,5.3588,5.3654,5.3632,5.3701,5.3742,5.3759,5.3816,5.3834,5.3899,5.3858,5.388,5.3933,5.3953,5.403,5.3943,5.4024,5.4027,5.4011,5.4181,5.4205,5.4333,5.4127,5.413,5.4133,0,5.349,5.3545,5.3679,5.3726,5.3754,5.3816,5.3877,5.3933,5.398,5.3988,5.403,5.402,5.41,5.4041,5.4152,5.4093,5.4126,5.4142,5.4147,5.4152,5.4085,5.4191,5.4374,5.4393,5.4161,5.4159,5.4157,0,5.3595,5.3703,5.3797,5.3824,5.3882,5.3926,5.3951,5.3995,5.4034,5.4088,5.4113,5.4175,5.4209,5.4256,5.4264,5.422,5.4375,5.4316,5.4382,5.4382,5.4414,5.4412,5.4605,5.4439,5.4439,5.4438,5.4438,0,5.3742,5.3825,5.3845,5.3903,5.3996,5.4,5.4091,5.4113,5.4152,5.4214,5.4199,5.4257,5.4264,5.4323,5.433,5.442,5.4435,5.4443,5.4444,5.4444,5.4443,5.4464,5.4455,5.4443,5.4442,5.4441,5.444,0,5.3874,5.3891,5.3993,5.404,5.4054,5.412,5.4159,5.4215,5.423,5.4308,5.4327,5.4351,5.4421,5.4434,5.4515,5.452,5.4627,5.4619,5.4612,5.461,5.4676,5.4669,5.4888,5.4917,5.4733,5.4735,5.4737,0,5.3966,5.403,5.4084,5.4125,5.4154,5.422,5.426,5.4268,5.4311,5.437,5.4418,5.4486,5.4541,5.4654,5.4678,5.474,5.4733,5.4806,5.4742,5.474,5.4733,5.4728,5.4734,5.4817,5.4819,5.4821,5.4822,0,5.4128,5.4134,5.4194,5.4258,5.4308,5.4358,5.4405,5.4439,5.4453,5.4502,5.4574,5.4617,5.4702,5.4769,5.4832,5.4858,5.4842,5.4842,5.4861,5.486,5.4853,5.4857,5.4643,5.4836,5.4835,5.4834,5.4833,5.4833,5.4242,5.4297,5.4345,5.4413,5.445,5.4495,5.455,5.4573,5.4634,5.4704,5.4704,5.4783,5.4829,5.4912,5.4942,5.5003,5.4979,5.5006,5.5013,5.5019,5.5025,5.4845,5.5014,5.5014,5.5014,5.5013,5.5013,0,5.4401,5.4432,5.4494,5.4562,5.4616,5.4599,5.4651,5.4696,5.4766,5.4811,5.4866,5.4948,5.5015,5.5046,5.5111,5.5154,5.5148,5.5171,5.5166,5.5173,5.5043,5.502,5.5174,5.5174,5.5174,5.5174,5.5174,5.5174,5.4491,5.4584,5.4596,5.4707,5.4737,5.4814,5.4846,5.4887,5.4923,5.5017,5.5072,5.5093,5.5132,5.52,5.526,5.5267,5.5291,5.5317,5.5321,5.5198,5.5182,5.5166,5.5144,5.5323,5.5323,5.5446,5.5447,5.5448]}]]